User: anonymous   Login
Location: Unspecified
(0.0000°N, 0.0000°E)
Time: 02:59:17
(UTC+00:00)
Language:

PAYLOAD B - Orbit

View from above orbital plane
View from above orbital plane
View from above satellite
View from above satellite

Ground track
Ground track

The orbit data is extracted from the following two-line orbital elements,

1 27056U 01058B   17232.63789427 -.00000015  00000-0 -14467-3 0  9998
2 27056  82.5377 120.6394 0005254 308.6554  51.4069 12.60506126719939
Epoch (UTC): 20 August 2017 15:18:34
Eccentricity: 0.0005254
inclination: 82.5377°
perigee height: 1417 km
apogee height: 1425 km
right ascension of ascending node: 120.6394°
argument of perigee: 308.6554°
revolutions per day: 12.60506126
mean anomaly at epoch: 51.4069°
orbit number at epoch: 71993

The dashed part of the orbit path shows where the satellite is in the earth's shadow,  

DLR